EN

Hourly Weather Gogolewo

Today, 16 May, Sunday

Time Temperature Precipitation Wind Pressure Humidity
00:00 +10°C° 0.5 mm 2 mps 743 mmHg 94%
01:00 +10°C° 0 mm 2 mps 743 mmHg 96%
02:00 +10°C° 0.1 mm 2 mps 743 mmHg 96%
03:00 +9°C° 0.1 mm 2 mps 743 mmHg 96%
04:00 +9°C° 0.1 mm 2 mps 742 mmHg 96%
05:00 +10°C° 0 mm 2 mps 743 mmHg 93%
06:00 +12°C° 0 mm 2 mps 743 mmHg 91%
07:00 +12°C° 0 mm 3 mps 743 mmHg 88%
08:00 +13°C° 0.3 mm 3 mps 743 mmHg 84%
09:00 +13°C° 0.3 mm 4 mps 743 mmHg 80%
10:00 +14°C° 0.3 mm 5 mps 743 mmHg 76%
11:00 +14°C° 0.3 mm 5 mps 743 mmHg 73%
12:00 +15°C° 0.3 mm 5 mps 743 mmHg 71%
13:00 +15°C° 0.3 mm 5 mps 743 mmHg 69%
14:00 +17°C° 0.2 mm 4 mps 743 mmHg 67%
15:00 +17°C° 0.2 mm 4 mps 743 mmHg 65%
16:00 +17°C° 0.2 mm 4 mps 743 mmHg 62%
17:00 +16°C° 0 mm 3 mps 743 mmHg 68%
18:00 +15°C° 0 mm 2 mps 743 mmHg 73%
19:00 +13°C° 0 mm 1 mps 743 mmHg 79%
20:00 +12°C° 0 mm 2 mps 743 mmHg 81%
21:00 +10°C° 0 mm 2 mps 743 mmHg 83%
22:00 +9°C° 0 mm 2 mps 743 mmHg 85%
23:00 +9°C° 0 mm 2 mps 743 mmHg 86%

Tomorrow, 17 May, Monday

Time Temperature Precipitation Wind Pressure Humidity
00:00 +9°C° 0 mm 2 mps 743 mmHg 88%
01:00 +8°C° 0 mm 2 mps 743 mmHg 90%
02:00 +8°C° 0 mm 2 mps 743 mmHg 90%
03:00 +8°C° 0 mm 2 mps 743 mmHg 90%
04:00 +8°C° 0 mm 2 mps 743 mmHg 90%
05:00 +9°C° 0 mm 2 mps 743 mmHg 86%
06:00 +11°C° 0 mm 3 mps 743 mmHg 82%
07:00 +12°C° 0 mm 3 mps 743 mmHg 79%
08:00 +12°C° 0.3 mm 3 mps 743 mmHg 82%
09:00 +12°C° 0.3 mm 3 mps 743 mmHg 86%
10:00 +12°C° 0.3 mm 3 mps 743 mmHg 89%
11:00 +13°C° 0.6 mm 2 mps 743 mmHg 90%
12:00 +12°C° 0.6 mm 2 mps 743 mmHg 90%
13:00 +12°C° 0.6 mm 1 mps 744 mmHg 90%
14:00 +13°C° 0.5 mm 1 mps 744 mmHg 89%
15:00 +13°C° 0.5 mm 1 mps 743 mmHg 88%
16:00 +13°C° 0.5 mm 1 mps 743 mmHg 87%
17:00 +13°C° 0.1 mm 1 mps 743 mmHg 88%
18:00 +13°C° 0.1 mm 1 mps 743 mmHg 90%
19:00 +12°C° 0.1 mm 2 mps 743 mmHg 91%
20:00 +12°C° 0.1 mm 2 mps 744 mmHg 92%
21:00 +11°C° 0.1 mm 3 mps 744 mmHg 93%
22:00 +10°C° 0.1 mm 4 mps 744 mmHg 94%
23:00 +10°C° 0.1 mm 4 mps 744 mmHg 94%

Day after tomorrow, 18 May, Tuesday

Time Temperature Precipitation Wind Pressure Humidity
00:00 +9°C° 0.1 mm 5 mps 744 mmHg 94%
01:00 +8°C° 0.1 mm 6 mps 744 mmHg 94%
02:00 +8°C° 0 mm 5 mps 745 mmHg 95%
03:00 +7°C° 0 mm 5 mps 745 mmHg 95%
04:00 +7°C° 0 mm 5 mps 745 mmHg 95%
05:00 +7°C° 0 mm 5 mps 745 mmHg 93%
06:00 +8°C° 0 mm 6 mps 745 mmHg 90%
07:00 +9°C° 0 mm 6 mps 746 mmHg 87%
08:00 +10°C° 0.1 mm 6 mps 746 mmHg 86%
09:00 +10°C° 0.1 mm 6 mps 746 mmHg 84%
10:00 +11°C° 0.1 mm 6 mps 746 mmHg 82%
11:00 +13°C° 0.2 mm 6 mps 746 mmHg 78%
12:00 +14°C° 0.2 mm 6 mps 746 mmHg 74%
13:00 +15°C° 0.2 mm 6 mps 746 mmHg 70%
14:00 +15°C° 0.3 mm 6 mps 746 mmHg 69%
15:00 +15°C° 0.3 mm 6 mps 746 mmHg 69%
16:00 +15°C° 0.3 mm 5 mps 746 mmHg 68%
17:00 +14°C° 0.2 mm 5 mps 747 mmHg 73%
18:00 +13°C° 0.2 mm 4 mps 747 mmHg 79%
19:00 +12°C° 0.2 mm 3 mps 747 mmHg 84%
20:00 +10°C° 0 mm 3 mps 747 mmHg 88%
21:00 +9°C° 0 mm 3 mps 748 mmHg 91%
22:00 +8°C° 0 mm 3 mps 748 mmHg 94%
23:00 +8°C° 0 mm 3 mps 748 mmHg 95%

19 May, Wednesday

Time Temperature Precipitation Wind Pressure Humidity
00:00 +8°C° 0 mm 3 mps 748 mmHg 96%
01:00 +6°C° 0 mm 4 mps 749 mmHg 96%
02:00 +6°C° 0 mm 4 mps 749 mmHg 97%
03:00 +6°C° 0 mm 4 mps 749 mmHg 97%
04:00 +6°C° 0 mm 4 mps 749 mmHg 97%
05:00 +7°C° 0 mm 4 mps 749 mmHg 94%
06:00 +7°C° 0 mm 5 mps 749 mmHg 91%
07:00 +8°C° 0 mm 5 mps 750 mmHg 88%
08:00 +9°C° 0 mm 5 mps 750 mmHg 86%
09:00 +10°C° 0 mm 4 mps 750 mmHg 85%
10:00 +11°C° 0 mm 4 mps 750 mmHg 84%
11:00 +11°C° 0.2 mm 4 mps 750 mmHg 84%
12:00 +10°C° 0.2 mm 5 mps 750 mmHg 83%
13:00 +12°C° 0.2 mm 5 mps 750 mmHg 83%
14:00 +12°C° 0.3 mm 5 mps 750 mmHg 82%
15:00 +12°C° 0.3 mm 5 mps 750 mmHg 81%
16:00 +12°C° 0.3 mm 5 mps 750 mmHg 80%
17:00 +11°C° 0.4 mm 4 mps 750 mmHg 83%
18:00 +11°C° 0.4 mm 3 mps 750 mmHg 85%
19:00 +10°C° 0.4 mm 3 mps 750 mmHg 87%
20:00 +9°C° 0 mm 3 mps 750 mmHg 88%
21:00 +8°C° 0 mm 2 mps 751 mmHg 90%
22:00 +7°C° 0 mm 2 mps 751 mmHg 91%
23:00 +7°C° 0 mm 2 mps 751 mmHg 92%

20 May, Thursday

Time Temperature Precipitation Wind Pressure Humidity
00:00 +7°C° 0 mm 2 mps 751 mmHg 92%
01:00 +6°C° 0 mm 2 mps 751 mmHg 93%
02:00 +5°C° 0 mm 3 mps 751 mmHg 94%
03:00 +5°C° 0 mm 3 mps 751 mmHg 94%
04:00 +5°C° 0 mm 3 mps 751 mmHg 95%
05:00 +7°C° 0 mm 3 mps 751 mmHg 92%
06:00 +7°C° 0 mm 4 mps 752 mmHg 90%
07:00 +10°C° 0 mm 4 mps 752 mmHg 88%
08:00 +11°C° 0.2 mm 4 mps 752 mmHg 82%
09:00 +12°C° 0.2 mm 5 mps 752 mmHg 76%
10:00 +14°C° 0.2 mm 5 mps 752 mmHg 70%
11:00 +14°C° 0.1 mm 5 mps 752 mmHg 65%
12:00 +15°C° 0.1 mm 5 mps 752 mmHg 60%
13:00 +15°C° 0.1 mm 5 mps 752 mmHg 55%
14:00 +15°C° 0.1 mm 5 mps 752 mmHg 57%
15:00 +15°C° 0.1 mm 5 mps 752 mmHg 59%
16:00 +15°C° 0.1 mm 5 mps 752 mmHg 61%
17:00 +14°C° 0 mm 4 mps 752 mmHg 65%
18:00 +12°C° 0 mm 3 mps 752 mmHg 70%
19:00 +11°C° 0 mm 3 mps 752 mmHg 75%
20:00 +10°C° 0 mm 3 mps 752 mmHg 77%
21:00 +9°C° 0 mm 3 mps 752 mmHg 80%
22:00 +8°C° 0 mm 3 mps 752 mmHg 82%
23:00 +7°C° 0 mm 3 mps 752 mmHg 86%

21 May, Friday

Time Temperature Precipitation Wind Pressure Humidity
00:00 +7°C° 0 mm 3 mps 752 mmHg 90%
01:00 +5°C° 0 mm 3 mps 752 mmHg 94%
02:00 +5°C° 0 mm 3 mps 752 mmHg 95%
03:00 +5°C° 0 mm 3 mps 752 mmHg 95%
04:00 +5°C° 0 mm 3 mps 752 mmHg 96%
05:00 +7°C° 0 mm 3 mps 752 mmHg 91%
06:00 +9°C° 0 mm 3 mps 752 mmHg 86%
07:00 +11°C° 0 mm 3 mps 752 mmHg 80%
08:00 +12°C° 0 mm 4 mps 751 mmHg 74%
09:00 +13°C° 0 mm 4 mps 751 mmHg 67%
10:00 +15°C° 0 mm 4 mps 751 mmHg 60%
11:00 +15°C° 0.2 mm 4 mps 750 mmHg 60%
12:00 +17°C° 0.2 mm 4 mps 750 mmHg 59%
13:00 +16°C° 0.2 mm 5 mps 749 mmHg 59%
14:00 +17°C° 0 mm 4 mps 749 mmHg 60%
15:00 +17°C° 0 mm 4 mps 748 mmHg 61%
16:00 +17°C° 0 mm 4 mps 747 mmHg 63%
17:00 +16°C° 0 mm 3 mps 747 mmHg 67%
18:00 +16°C° 0 mm 3 mps 747 mmHg 71%
19:00 +14°C° 0 mm 3 mps 746 mmHg 76%
20:00 +14°C° 0 mm 4 mps 746 mmHg 73%
21:00 +13°C° 0 mm 4 mps 746 mmHg 71%
22:00 +13°C° 0 mm 5 mps 745 mmHg 69%
23:00 +13°C° 0 mm 4 mps 745 mmHg 72%
Show more